CAPE
1 5 5 4 0 0 0 0 0 0 0 0 0 0 0 0 0 0 0 0 0 0 0 0 0 0 0 0 0 0 0 0 0 0 0 0 0 0 0 0 0 0 0 0
1 1 3 6 2 0 0 0 0 0 0 0 0 0 0 0 0 0 0 0 0 0 0 0 0 0 0 0 0 0 0 0 0 0 0 0 0 0 0 0 0 0 0 0
0 0 0 4 3 0 0 0 0 0 0 0 0 0 0 0 0 0 0 0 0 0 0 0 0 0 0 0 0 0 0 0 0 0 0 0 0 0 0 0 0 0 0 0
0 0 0 1 2 0 0 0 0 0 0 0 0 0 0 0 0 0 0 0 0 0 0 0 0 0 0 0 0 0 0 0 0 0 0 0 0 0 0 0 0 0 0 0
0 1 1 0 0 0 0 0 0 0 0 0 0 0 0 0 0 0 0 0 0 0 0 0 0 0 0 0 0 0 0 0 0 0 0 0 0 0 0 0 0 0 0 0
0 0 2 0 0 0 0 0 0 0 0 0 0 0 0 0 0 0 0 0 0 0 0 0 0 0 0 0 0 0 0 0 0 0 0 0 0 0 0 0 0 0 0 0
0 0 0 0 0 0 0 0 0 0 0 0 0 0 0 0 0 0 0 0 0 0 0 0 0 0 0 0 0 0 0 0 0 0 0 0 0 0 0 0 0 0 0 0
0 0 0 0 0 0 0 0 0 0 0 0 0 0 0 0 0 0 0 0 0 0 0 0 0 0 0 0 0 0 0 0 0 0 0 0 0 0 0 0 0 0 0 0
0 0 0 0 0 0 0 0 0 0 0 0 0 0 0 0 0 0 0 0 0 0 0 0 0 0 0 0 0 0 0 0 0 0 0 0 0 0 0 0 0 0 0 0
0 0 0 0 0 0 0 0 0 0 0 0 0 0 0 0 0 0 0 0 0 0 0 0 0 0 0 0 0 0 0 0 0 0 0 0 0 0 0 0 0 0 0 0
0 0 0 0 0 0 0 0 0 0 0 0 0 0 0 0 0 0 0 0 0 0 0 0 0 0 0 0 0 0 0 0 0 0 0 0 0 0 0 0 0 0 0 0
0 0 0 0 0 0 0 0 0 0 0 0 0 0 0 0 0 0 0 0 0 0 0 0 0 0 0 0 0 0 0 0 0 0 0 0 0 0 0 0 0 0 0 0
0 0 0 0 0 0 0 0 0 0 0 0 0 0 0 0 0 0 0 0 0 0 0 0 0 0 0 0 0 0 0 0 0 0 0 0 0 0 0 0 0 0 0 0
1 4 0 0 0 0 0 0 0 0 0 0 0 0 0 0 0 0 0 0 0 0 0 0 0 0 0 0 0 0 0 0 0 0 0 0 0 0 0 0 0 0 0 0
3 5 9 0 0 0 0 0 0 0 0 0 0 0 0 0 0 0 0 0 0 0 0 0 0 0 0 0 0 0 0 0 0 0 0 0 0 0 0 0 0 0 0 0
0 4 9 0 0 0 0 0 0 0 0 0 0 0 0 0 0 0 0 0 0 0 0 0 0 0 0 0 0 0 0 0 0 0 0 0 0 0 0 0 0 0 0 0
0 2 16 0 0 0 0 0 0 0 0 0 0 0 0 0 0 0 0 0 0 0 0 0 0 0 0 0 0 0 0 0 0 0 0 0 0 0 0 0 0 0 0 0
0 1 9 0 0 0 0 0 0 0 0 0 0 0 0 0 0 0 0 0 0 0 0 0 0 0 0 0 0 0 0 0 0 0 0 0 0 0 0 0 0 0 0 0
1 3 0 0 0 0 0 0 0 0 0 0 0 0 0 0 0 0 0 0 0 0 0 0 0 0 0 0 0 0 0 0 0 0 0 0 0 0 0 0 0 0 0 0
0 0 0 0 0 0 0 0 0 0 0 0 1 0 0 0 0 0 0 0 0 0 0 0 0 0 0 0 0 0 0 0 0 0 0 0 0 0 0 0 0 0 0 0
0 0 0 0 0 0 0 0 0 0 0 0 0 0 0 0 0 0 0 0 0 0 0 0 0 0 0 0 0 0 0 0 0 0 0 0 0 0 0 0 0 0 0 0
0 0 0 0 0 0 0 0 0 1 0 0 0 0 0 0 0 0 0 0 0 0 0 2 0 0 0 0 0 0 0 0 0 0 0 0 0 0 0 0 0 0 0 0
0 0 0 0 0 3 0 0 0 0 0 0 0 0 0 0 0 0 0 0 0 0 0 0 0 0 0 0 0 0 0 0 0 0 0 0 0 0 0 0 0 0 0 0
0 0 0 0 0 0 0 0 0 0 0 0 0 0 0 0 0 0 0 0 0 0 0 0 0 0 0 0 0 0 0 0 0 0 0 0 0 0 0 0 0 0 0 0
0 0 0 0 0 0 0 0 0 0 0 0 0 0 0 0 0 0 0 1 0 0 0 0 0 0 0 0 0 0 0 0 0 0 0 0 0 0 0 0 0 0 0 0
0 1 0 0 0 0 0 0 0 0 0 0 0 0 0 0 0 0 0 0 0 0 0 0 0 0 0 0 0 0 0 0 0 0 0 0 0 0 0 0 0 0 0 0
0 0 0 0 0 0 0 0 0 0 0 0 0 0 0 0 0 0 0 0 0 0 0 0 0 0 0 0 0 0 0 0 0 0 0 0 0 0 0 0 0 0 0 0
CIN
-0 -0 -0 -0 -0 -0 -0 -0 -0 -0 -0 -0 -0 -0 -0 -0 -0 -0 -0 -0 -0 -0 -0 -0 -0 -0 -0 -0 -0 -0 -0 -0 -0 -0 -0 -0 -0 -0 -0 -0 -0 -0 -0 -0
-0 -0 -0 -0 -0 -0 -0 -0 -0 -0 -0 -0 -0 -0 -0 -0 -0 -0 -0 -0 -0 -0 -0 -0 -0 -0 -0 -0 -0 -0 -0 -0 -0 -0 -0 -0 -0 -0 -0 -0 -0 -0 -0 -0
-0 -0 -0 -0 -0 -0 -0 -0 -0 -0 -0 -0 -0 -0 -0 -0 -0 -0 -0 -0 -0 -0 -0 -0 -0 -0 -0 -0 -0 -0 -0 -0 -0 -0 -0 -0 -0 -0 -0 -0 -0 -0 -0 -0
-0 -0 -0 -0 -0 -0 -0 -0 -0 -0 -0 -0 -0 -0 -0 -0 -0 -0 -0 -0 -0 -0 -0 -0 -0 -0 -0 -0 -0 -0 -0 -0 -0 -0 -0 -0 -0 -0 -0 -0 -0 -0 -0 -0
-0 -0 -0 -0 -0 -0 -0 -0 -0 -0 -0 -0 -0 -0 -0 -0 -0 -0 -0 -0 -0 -0 -0 -0 -0 -0 -0 -0 -0 -0 -0 -0 -0 -0 -0 -0 -0 -0 -0 -0 -0 -0 -0 -0
-0 -0 -0 -0 -0 -0 -0 -0 -0 -0 -0 -0 -0 -0 -0 -0 -0 -0 -0 -0 -0 -0 -0 -0 -0 -0 -0 -0 -0 -0 -0 -0 -0 -0 -0 -0 -0 -0 -0 -0 -0 -0 -0 -0
-0 -0 -0 -0 -0 -0 -0 -0 -0 -0 -0 -0 -0 -0 -0 -0 -0 -0 -0 -0 -0 -0 -0 -0 -0 -0 -0 -0 -0 -0 -0 -0 -0 -0 -0 -0 -0 -0 -0 -0 -0 -0 -0 -0
-0 -0 -0 -0 -0 -0 -0 -0 -0 -0 -0 -0 -0 -0 -0 -0 -0 -0 -0 -0 -0 -0 -0 -0 -0 -0 -0 -0 -0 -0 -0 -0 -0 -0 -0 -0 -0 -0 -0 -0 -0 -0 -0 -0
-0 -0 -0 -0 -0 -0 -0 -0 -0 -0 -0 -0 -0 -0 -0 -0 -0 -0 -0 -0 -0 -0 -0 -0 -0 -0 -0 -0 -0 -0 -0 -0 -0 -0 -0 -0 -0 -0 -0 -0 -0 -0 -0 -0
-0 -0 -0 -0 -0 -0 -0 -0 -0 -0 -0 -0 -0 -0 -0 -0 -0 -0 -0 -0 -0 -0 -0 -0 -0 -0 -0 -0 -0 -0 -0 -0 -0 -0 -0 -0 -0 -0 -0 -0 -0 -0 -0 -0
-0 -0 -0 -0 -0 -0 -0 -0 -0 -0 -0 -0 -0 -0 -0 -0 -0 -0 -0 -0 -0 -0 -0 -0 -0 -0 -0 -0 -0 -0 -0 -0 -0 -0 -0 -0 -0 -0 -0 -0 -0 -0 -0 -0
-0 -0 -0 -0 -0 -0 -0 -0 -0 -0 -0 -0 -0 -0 -0 -0 -0 -0 -0 -0 -0 -0 -0 -0 -0 -0 -0 -0 -0 -0 -0 -0 -0 -0 -0 -0 -0 -0 -0 -0 -0 -0 -0 -0
-0 -0 -0 -0 -0 -0 -0 -0 -0 -0 -0 -0 -0 -0 -0 -0 -0 -0 -0 -0 -0 -0 -0 -0 -0 -0 -0 -0 -0 -0 -0 -0 -0 -0 -0 -0 -0 -0 -0 -0 -0 -0 -0 -0
-0 -2 -0 -0 -0 -0 -0 -0 -0 -0 -0 -0 -0 -0 -0 -0 -0 -0 -0 -0 -0 -0 -0 -0 -0 -0 -0 -0 -0 -0 -0 -0 -0 -0 -0 -0 -0 -0 -0 -0 -0 -0 -0 -0
-5 -3 -9 -0 -0 -0 -0 -0 -0 -0 -0 -0 -0 -0 -0 -0 -0 -0 -0 -0 -0 -0 -0 -0 -0 -0 -0 -0 -0 -0 -0 -0 -0 -0 -0 -0 -0 -0 -0 -0 -0 -0 -0 -0
-0 -4 -2 -0 -0 -0 -0 -0 -0 -0 -0 -0 -0 -0 -0 -0 -0 -0 -0 -0 -0 -0 -0 -0 -0 -0 -0 -0 -0 -0 -0 -0 -0 -0 -0 -0 -0 -0 -0 -0 -0 -0 -0 -0
-0 -4 -3 -0 -0 -0 -0 -0 -0 -0 -0 -0 -0 -0 -0 -0 -0 -0 -0 -0 -0 -0 -0 -0 -0 -0 -0 -0 -0 -0 -0 -0 -0 -0 -0 -0 -0 -0 -0 -0 -0 -0 -0 -0
-0 -6 -10 -0 -0 -0 -0 -0 -0 -0 -0 -0 -0 -0 -0 -0 -0 -0 -0 -0 -0 -0 -0 -0 -0 -0 -0 -0 -0 -0 -0 -0 -0 -0 -0 -0 -0 -0 -0 -0 -0 -0 -0 -0
-2 -6 -0 -0 -0 -0 -0 -0 -0 -0 -0 -0 -0 -0 -0 -0 -0 -0 -0 -0 -0 -0 -0 -0 -0 -0 -0 -0 -0 -0 -0 -0 -0 -0 -0 -0 -0 -0 -0 -0 -0 -0 -0 -0
-0 -0 -0 -0 -0 -0 -0 -0 -0 -0 -0 -0 -0 -0 -0 -0 -0 -0 -0 -0 -0 -0 -0 -0 -0 -0 -0 -0 -0 -0 -0 -0 -0 -0 -0 -0 -0 -0 -0 -0 -0 -0 -0 -0
-0 -0 -0 -0 -0 -0 -0 -0 -0 -0 -0 -0 -0 -0 -0 -0 -0 -0 -0 -0 -0 -0 -0 -0 -0 -0 -0 -0 -0 -0 -0 -0 -0 -0 -0 -0 -0 -0 -0 -0 -0 -0 -0 -0
-0 -0 -0 -0 -0 -0 -0 -0 -0 -0 -0 -0 -0 -0 -0 -0 -0 -0 -0 -0 -0 -0 -0 -0 -0 -0 -0 -0 -0 -0 -0 -0 -0 -0 -0 -0 -0 -0 -0 -0 -0 -0 -0 -0
-0 -0 -0 -0 -0 -0 -0 -0 -0 -0 -0 -0 -0 -0 -0 -0 -0 -0 -0 -0 -0 -0 -0 -0 -0 -0 -0 -0 -0 -0 -0 -0 -0 -0 -0 -0 -0 -0 -0 -0 -0 -0 -0 -0
-0 -0 -0 -0 -0 -3 -0 -0 -0 -0 -0 -0 -0 -0 -0 -0 -0 -0 -0 -0 -0 -0 -0 -0 -0 -0 -0 -0 -0 -0 -0 -0 -0 -0 -0 -0 -0 -0 -0 -0 -0 -0 -0 -0
-0 -2 -0 -0 -0 -0 -0 -0 -0 -0 -0 -0 -0 -0 -0 -0 -0 -0 -0 -0 -0 -0 -0 -0 -0 -0 -0 -0 -0 -0 -0 -0 -0 -0 -0 -0 -0 -0 -0 -0 -0 -0 -0 -0
-0 -2 -5 -0 -0 -0 -0 -0 -0 -0 -0 -0 -0 -0 -0 -0 -0 -0 -0 -0 -0 -0 -0 -0 -0 -0 -0 -0 -0 -0 -0 -0 -0 -0 -0 -0 -0 -0 -0 -0 -0 -0 -0 -0
-0 -0 -0 -0 -0 -0 -0 -0 -0 -0 -0 -0 -0 -1 -0 -0 -0 -0 -0 -0 -0 -0 -0 -0 -0 -0 -0 -0 -0 -0 -0 -0 -0 -0 -0 -0 -0 -0 -0 -0 -0 -0 -0 -0
Wind_Speed
16 17 17 15 7 9 5 2 3 3 2 6 2 2 1 1 3 2 2 1 3 2 2 2 2 2 1 2 2 2 1 4 4 7 3 5 3 5 5 4 4 2 3 11
15 17 19 17 9 6 4 2 1 2 3 4 2 2 2 1 3 3 2 2 2 1 2 4 2 2 1 2 3 4 2 1 3 7 5 1 4 6 4 4 3 6 5 9
16 17 19 20 16 8 4 3 3 4 4 1 5 3 2 2 0 1 2 2 3 3 3 4 3 2 0 2 2 4 3 2 6 7 5 4 5 5 6 7 3 4 10 9
16 17 19 21 22 11 4 4 2 2 2 4 3 2 1 2 2 0 2 2 3 2 3 2 3 2 1 2 3 2 4 3 3 6 9 6 5 5 7 12 13 9 1 10
16 17 18 20 22 4 5 4 3 2 1 3 2 4 0 3 1 1 2 3 1 1 3 5 7 5 3 4 1 3 2 2 2 6 4 6 9 11 13 15 15 18 18 30
15 16 17 19 20 4 2 1 1 5 3 1 3 2 1 1 2 1 1 1 1 2 2 1 1 1 3 2 6 5 4 3 2 6 3 6 8 9 16 7 7 15 16 27
14 15 16 17 19 9 3 1 2 4 2 2 4 2 2 1 1 1 1 1 1 1 1 3 4 3 2 2 3 3 5 3 1 5 6 3 7 5 7 15 10 17 15 19
11 14 15 16 18 13 5 2 3 2 2 2 1 4 3 1 1 1 2 2 3 1 4 3 3 4 1 1 1 4 1 4 1 2 3 10 4 2 6 7 7 7 18 18
8 11 13 14 16 13 5 2 1 3 4 6 2 4 4 4 3 3 3 0 2 4 3 3 0 2 2 1 2 5 5 4 4 1 3 5 4 1 2 2 6 2 5 9
6 8 11 12 13 13 4 2 2 4 2 3 0 2 4 5 3 2 3 1 1 4 2 2 3 3 3 3 5 6 3 1 5 4 4 11 8 6 2 2 7 2 3 3
3 6 8 11 12 13 3 1 2 3 2 5 2 2 3 2 1 4 3 3 2 3 2 2 2 2 3 2 2 6 7 7 5 3 4 10 7 5 7 5 3 3 3 4
2 3 5 8 10 12 3 2 1 2 3 4 1 2 3 3 2 4 1 3 4 5 4 1 2 2 0 3 4 1 4 7 6 11 10 3 5 5 4 1 3 7 7 10
3 2 2 5 8 10 6 1 2 3 3 3 3 2 3 3 4 2 2 2 1 1 2 4 2 4 5 4 7 2 5 3 4 1 4 8 12 10 8 5 11 12 7 10
3 4 3 1 5 7 5 2 2 1 3 1 3 1 2 4 5 1 2 3 3 4 2 2 2 2 3 4 2 3 5 3 3 7 12 12 5 1 6 8 9 9 9 7
3 4 4 1 3 6 3 2 2 3 2 2 3 1 2 3 2 2 2 3 3 2 2 2 4 2 1 1 1 5 6 6 5 6 2 4 12 7 8 14 13 13 9 8
2 3 4 3 1 4 2 2 2 2 1 2 2 1 2 5 4 6 4 3 3 3 3 3 2 3 1 2 4 8 5 3 3 5 8 13 19 19 5 6 12 13 8 8
3 3 4 7 3 3 2 2 2 2 2 1 4 3 1 1 3 3 3 3 2 2 2 1 1 2 1 2 4 4 3 5 8 7 5 10 3 10 18 17 16 10 7 6
2 3 7 8 6 6 2 2 4 1 3 2 1 4 1 1 1 1 1 2 2 3 1 1 2 1 1 5 7 8 6 10 10 3 4 9 13 13 10 8 7 8 8 7
3 10 10 3 3 0 1 0 4 1 2 3 2 2 3 1 1 2 1 1 1 0 1 2 2 2 7 8 6 7 4 4 14 14 10 8 6 11 11 9 9 7 7 6
12 3 2 1 1 3 2 4 3 4 3 2 3 1 3 2 1 1 2 1 1 1 2 1 2 5 6 10 9 7 7 6 6 7 12 11 12 12 12 10 9 7 7 7
2 2 2 1 2 1 2 1 0 0 3 3 3 4 2 1 2 3 1 2 1 2 2 1 2 5 4 2 4 5 5 5 6 7 8 8 9 10 10 12 9 8 8 6
4 5 4 2 1 2 2 2 1 3 3 1 2 3 3 0 1 2 1 4 2 4 1 1 4 6 4 3 4 5 4 5 6 4 7 8 8 8 8 8 8 7 8 8
2 4 4 2 1 2 4 4 3 3 2 2 1 1 1 2 2 2 2 2 3 2 1 5 8 3 4 5 4 6 6 5 6 8 6 7 9 7 5 10 7 8 8 9
3 4 2 4 4 4 4 4 4 4 2 2 2 2 2 1 2 2 2 2 3 2 4 9 3 4 4 3 3 3 9 10 9 10 9 9 9 11 10 8 8 8 11 10
3 2 4 5 3 1 1 2 2 2 2 3 2 3 2 2 1 2 1 2 4 6 7 4 4 4 3 3 4 6 7 8 9 8 8 9 10 10 11 9 8 8 8 9
3 2 2 2 1 2 2 1 3 2 3 1 2 3 4 3 3 3 6 3 8 6 4 4 2 4 6 7 7 8 7 8 11 11 9 10 9 11 13 12 10 10 9 11
4 4 3 3 0 2 2 2 3 2 3 2 2 3 9 1 3 4 5 7 5 4 4 4 6 7 14 9 10 10 10 12 12 11 9 10 10 7 7 13 15 10 9 10
Wind_Direction
359 358 -0 1 30 117 66 89 25 335 9 54 47 49 42 263 12 44 65 60 80 91 105 102 95 120 261 114 129 68 15 118 178 211 248 200 178 194 149 133 232 210 152 272
2 358 358 358 348 184 127 91 237 1 50 98 333 280 47 60 43 36 68 63 48 267 116 103 96 116 0 125 96 148 175 71 44 350 357 24 209 197 170 120 88 214 151 262
1 2 359 358 350 200 102 82 14 333 53 24 128 135 142 119 258 31 56 112 77 66 54 22 136 124 321 88 101 109 88 153 185 191 202 149 219 208 181 154 153 206 233 287
4 2 3 1 358 172 104 32 238 163 307 352 14 46 80 115 140 124 41 59 94 145 136 108 145 160 153 51 131 79 113 227 198 252 245 247 240 226 200 208 215 210 191 233
6 5 6 7 12 140 78 130 129 15 96 336 24 354 257 165 246 186 298 145 211 210 175 193 198 157 193 201 79 134 34 266 31 285 302 227 253 244 233 229 234 253 265 278
11 8 7 11 17 56 84 209 11 109 314 67 84 264 323 307 40 346 9 123 68 279 285 132 46 92 98 139 157 175 154 152 59 269 330 312 293 225 217 201 199 220 238 248
13 14 13 15 22 65 124 346 86 96 225 156 192 184 141 182 238 253 315 129 175 242 86 88 73 79 152 165 238 145 138 113 101 274 342 347 244 189 193 196 230 215 248 260
13 15 18 20 23 39 86 4 59 100 192 177 213 169 170 109 12 214 231 211 192 87 50 40 24 350 25 97 61 203 140 114 355 33 268 292 293 147 146 171 284 220 231 256
14 15 20 19 23 35 89 88 138 73 111 250 151 152 169 182 201 321 241 48 153 75 91 75 120 237 276 193 90 46 85 88 124 46 314 262 263 344 191 171 303 263 202 259
6 14 15 20 20 25 94 83 66 93 56 277 108 193 179 138 120 164 319 299 38 35 77 138 177 253 181 209 187 174 136 151 187 195 263 284 245 216 147 40 244 256 208 248
354 8 17 17 15 16 68 146 51 93 137 276 308 325 118 70 108 147 221 52 353 49 103 150 237 188 248 324 193 180 173 150 197 144 215 278 167 70 167 224 301 291 280 262
293 341 6 20 14 13 42 64 12 107 147 244 291 302 330 329 175 142 211 181 174 186 103 187 128 252 52 180 271 187 244 194 184 193 219 265 215 237 244 211 257 277 270 279
277 273 325 19 22 17 43 2 314 70 45 316 25 17 352 36 10 324 160 283 169 146 164 152 153 240 132 206 240 247 248 168 233 346 285 236 249 259 275 281 269 283 266 267
294 251 238 10 30 33 36 45 323 51 118 62 278 331 35 320 358 359 122 146 65 92 63 94 132 220 158 225 262 209 217 156 213 264 292 310 307 189 277 300 302 294 280 249
309 295 260 250 38 48 75 60 14 315 92 216 281 344 4 340 334 67 102 106 105 106 92 122 220 231 174 218 40 251 185 209 178 238 308 235 284 278 304 300 296 286 277 286
314 319 234 199 58 74 80 39 358 329 24 73 318 252 36 9 48 72 73 100 106 115 149 207 271 281 170 273 243 262 233 251 178 274 313 290 287 294 292 294 310 304 280 271
263 316 252 157 143 81 95 194 222 109 25 29 312 308 139 80 49 23 30 24 100 123 146 189 222 288 200 251 249 276 275 284 283 258 293 310 276 304 308 298 295 296 283 280
217 280 123 131 120 111 53 343 2 67 99 67 284 279 16 68 84 86 353 63 22 14 136 210 194 302 96 253 251 278 310 314 303 337 291 258 289 304 302 292 302 308 300 300
167 123 123 96 29 109 217 13 70 4 136 162 192 252 262 10 89 110 56 90 96 231 162 254 132 216 225 226 257 281 295 286 292 311 299 293 288 303 317 324 321 312 303 305
131 94 117 74 221 256 44 9 39 23 329 50 207 97 251 97 26 40 75 359 135 221 232 109 218 261 270 263 253 267 286 298 305 316 332 333 327 325 320 311 298 286 283 294
83 109 123 188 330 43 43 38 352 84 254 204 226 175 176 269 137 173 130 192 168 229 243 216 267 268 249 279 324 315 304 282 266 235 260 262 261 285 302 310 303 298 293 277
163 128 104 92 80 73 43 233 264 230 257 241 209 206 182 334 13 91 186 134 148 245 300 228 254 247 253 289 277 284 287 291 297 254 282 294 287 281 280 280 289 288 282 279
56 63 62 96 250 200 198 219 224 233 236 212 160 20 77 35 59 61 74 131 208 83 221 233 228 235 255 246 256 282 270 265 294 310 295 288 286 284 252 286 272 275 277 277
95 147 194 192 207 230 189 186 201 244 144 152 124 92 121 124 71 145 131 220 109 216 251 239 242 228 215 243 285 326 326 330 318 308 306 309 300 300 293 260 266 271 275 278
135 139 220 224 223 59 193 243 310 241 170 127 86 56 89 16 75 173 153 203 236 217 236 242 239 226 242 270 299 313 292 296 297 291 295 286 285 284 286 283 273 254 266 268
128 199 248 265 32 262 174 215 266 202 129 69 56 99 59 265 165 189 215 226 224 246 225 238 273 291 270 276 259 261 279 286 287 285 276 281 285 289 290 294 285 277 258 263
204 219 220 131 89 208 232 154 239 156 124 192 103 105 223 140 226 223 204 215 233 230 264 249 241 240 314 320 315 302 285 278 268 269 271 271 279 281 283 289 296 290 269 257